{"data":{"norad_id":67176,"epoch":"2026-05-24T23:41:25.302624Z","epoch_age_seconds":82984,"freshness":"FRESH","line1":"1 67176U 25303P   26144.98709841  .00011152  00000+0  41407-3 0  9991","line2":"2 67176  43.0024 239.8432 0001684 277.4003  82.6657 15.27587673 24400","mean_motion":15.27587673,"eccentricity":0.0001684,"inclination_deg":43.0024,"raan_deg":239.8432,"arg_perigee_deg":277.4003,"mean_anomaly_deg":82.6657,"bstar":0.00041407,"rev_number":2440,"period_min":94.26627521627,"perigee_km":481.870700544,"apogee_km":484.18154028295,"semimajor_km":6861.1631204135,"source":"CELESTRAK","updated_at":"2026-05-25T13:38:21.482471Z"}}